Volver al catálogo

STARLINK-31517

ActivoComunicacionesVLEO
NORAD 59213·PAYLOAD·🇺🇸 United States

Lanzado Mar 11, 2024 desde Vandenberg Space Force Base

Loading…

Próximos Pases (próximas 24 horas)

TLE

ActualizadoSource: CelesTrak SupGP

Época: Sep 15, 2026, 02:35 UTC

1 59213C 24046N   26258.10812500  .00071787  00000+0  21215-2 0  2586
2 59213  53.1600 351.2724 0001244  90.2106 157.0146 15.34347222    18

Sigue STARLINK-31517 en tiempo real con AllMySat

Download on the App Store